Great Falls, MT

2:06 AM MST on November 19, 2017 (GMT -0700)
Great Falls International

Weather History for KGTF - June, 2013

Change the Weather History Date:

Monday, June 3, 2013

  Actual Average Record
Temperature  
Mean Temperature 45 °F 56 °F  
Max Temperature 48 °F 69 °F 93 °F (1988)
Min Temperature 41 °F 44 °F 33 °F (1943)
Degree Days  
Heating Degree Days 20 9  
Month to date heating degree days 40 27  
Since 1 June heating degree days 40 27  
Since 1 July heating degree days 6890 7562  
Cooling Degree Days 0 0  
Month to date cooling degree days 0 0  
Year to date cooling degree days 3 7  
Since 1 June cooling degree days 0 0  
Moisture  
Dew Point 42 °F    
Average Humidity 91    
Maximum Humidity 100    
Minimum Humidity 82    
Precipitation  
Precipitation 0.75 in 0.11 in 2.07 in (1953)
Month to date precipitation 1.51 0.32  
Year to date precipitation 6.59 6.05  
Snow  
Snow 0.00 in 0.00 in T in (1943)
Month to date snowfall 0.0 0.1  
Since 1 June snowfall 0.0 0.1  
Since 1 July snowfall 76.2 63.3  
Snow Depth 0.00 in    
Sea Level Pressure  
Sea Level Pressure 29.98 in    
Wind  
Wind Speed 13 mph (NNW)    
Max Wind Speed 32 mph    
Max Gust Speed 38 mph    
Visibility 8 miles    
Events Rain    
T = Trace of Precipitation, MM = Missing Value Source: NWS Daily Summary

Daily Weather History Graph

Daily Weather History Graph

Search for Another Location

Airport or City:

Trip Planner

Search our weather history database for the weather conditions in past years. The results will help you decide how hot, cold, wet, or windy it might be!

Date:

Astronomy

Jun. 03, 2013 Rise Set
Actual Time 5:31 AM MDT 9:16 PM MDT
Civil Twilight 4:51 AM MDT 9:56 PM MDT
Nautical Twilight 3:58 AM MDT 10:50 PM MDT
Astronomical Twilight 2:41 AM MDT 12:07 AM MDT
Moon 2:48 AM MDT (6/3) 4:35 PM MDT (6/3)
Length of Visible Light 17h 04m
Length of Day
15h 45m
Waning Crescent, 21% of the Moon is Illuminated
Jun 3
Waning Crescent
Jun 8
New
Jun 16
First Quarter
Jun 23
Full
Jun 29
Last Quarter

Hourly Weather History & Observations

Time (MDT) Temp. Windchill Dew Point Humidity Pressure Visibility Wind Dir Wind Speed Gust Speed Precip Events Conditions
12:02 AM 48.2 °F - 46.4 °F 93% 29.85 in 10.0 mi WNW 8.1 mph - 0.00 in Rain Light Rain
12:10 AM 48.2 °F - 46.4 °F 93% 29.85 in 10.0 mi WNW 9.2 mph - 0.01 in Rain Light Rain
12:34 AM 46.4 °F 41.1 °F 44.6 °F 93% 29.84 in 9.0 mi WNW 11.5 mph - 0.02 in Rain Light Rain
12:53 AM 46.9 °F - 45.0 °F 93% 29.84 in 10.0 mi WNW 12.7 mph - 0.03 in Rain Light Rain
1:04 AM 46.4 °F 41.1 °F 44.6 °F 93% 29.84 in 10.0 mi WNW 11.5 mph - 0.01 in Rain Light Rain
1:14 AM 46.4 °F 40.7 °F 44.6 °F 93% 29.84 in 10.0 mi WNW 12.7 mph - 0.01 in Rain Light Rain
1:53 AM 46.0 °F 39.9 °F 44.1 °F 93% 29.83 in 10.0 mi West 13.8 mph - 0.01 in Rain Light Rain
2:05 AM 46.4 °F 40.7 °F 44.6 °F 93% 29.84 in 10.0 mi West 12.7 mph - 0.00 in Rain Light Rain
2:53 AM 45.0 °F 38.2 °F 44.1 °F 97% 29.82 in 7.0 mi West 15.0 mph - 0.02 in Rain Light Rain
3:05 AM 46.4 °F 40.1 °F 44.6 °F 93% 29.82 in 7.0 mi West 15.0 mph - 0.00 in Rain Light Rain
3:29 AM 44.6 °F 37.8 °F 44.6 °F 100% 29.82 in 7.0 mi West 15.0 mph - 0.02 in Rain Light Rain
3:53 AM 45.0 °F 38.2 °F 43.0 °F 93% 29.82 in 10.0 mi WSW 15.0 mph - 0.02 in Rain Light Rain
4:53 AM 44.1 °F 36.8 °F 42.1 °F 93% 29.83 in 10.0 mi WSW 16.1 mph - 0.04 in Rain Light Rain
5:53 AM 45.0 °F 37.6 °F 43.0 °F 93% 29.83 in 10.0 mi West 17.3 mph - 0.01 in Rain Light Rain
6:53 AM 46.0 °F 38.8 °F 43.0 °F 89% 29.83 in 7.0 mi West 18.4 mph - 0.01 in Rain Light Rain
7:04 AM 46.4 °F 39.2 °F 42.8 °F 87% 29.82 in 6.0 mi West 18.4 mph 25.3 mph 0.01 in Rain Light Rain
7:53 AM 46.0 °F 38.5 °F 43.0 °F 89% 29.83 in 6.0 mi WNW 19.6 mph 27.6 mph 0.04 in Rain Light Rain
8:14 AM 46.4 °F 39.0 °F 42.8 °F 87% 29.82 in 7.0 mi WNW 19.6 mph 29.9 mph 0.02 in Rain Light Rain
8:26 AM 46.4 °F 38.7 °F 42.8 °F 87% 29.82 in 8.0 mi WNW 20.7 mph 28.8 mph 0.03 in Rain Light Rain
8:53 AM 46.0 °F 37.2 °F 43.0 °F 89% 29.85 in 7.0 mi WNW 26.5 mph 32.2 mph 0.05 in Rain Light Rain
9:09 AM 46.4 °F 38.3 °F 42.8 °F 87% 29.83 in 6.0 mi NW 23.0 mph 38.0 mph 0.01 in Rain Light Rain
9:53 AM 46.0 °F 37.6 °F 43.0 °F 89% 29.85 in 10.0 mi WNW 24.2 mph 33.4 mph 0.06 in Rain Light Rain
10:19 AM 46.4 °F 38.3 °F 42.8 °F 87% 29.84 in 6.0 mi WNW 23.0 mph 35.7 mph 0.02 in Rain Light Rain
10:53 AM 46.0 °F 40.6 °F 43.0 °F 89% 29.91 in 3.0 mi NNW 11.5 mph - 0.11 in Rain Rain
11:20 AM 44.6 °F 38.8 °F 42.8 °F 93% 29.91 in 2.5 mi NNE 11.5 mph - 0.08 in Rain Rain
11:29 AM 44.6 °F 38.4 °F 42.8 °F 93% 29.91 in 4.0 mi NNE 12.7 mph - 0.10 in Rain Light Rain
11:53 AM 45.0 °F 38.2 °F 42.1 °F 90% 29.96 in 4.0 mi NNE 15.0 mph - 0.13 in Rain Rain
12:08 PM 44.6 °F 38.8 °F 42.8 °F 93% 29.94 in 7.0 mi NNE 11.5 mph - 0.01 in Rain Light Rain
12:44 PM 44.6 °F 38.4 °F 41.0 °F 87% 29.95 in 7.0 mi North 12.7 mph - 0.04 in Rain Light Rain
12:53 PM 45.0 °F 39.3 °F 41.0 °F 86% 29.99 in 7.0 mi North 11.5 mph - 0.05 in Rain Light Rain
1:27 PM 46.4 °F 40.1 °F 42.8 °F 87% 29.96 in 10.0 mi North 15.0 mph - 0.01 in Rain Light Rain
1:53 PM 46.9 °F - 42.1 °F 83% 30.01 in 10.0 mi North 13.8 mph - 0.01 in   Overcast
2:53 PM 45.0 °F 39.7 °F 42.1 °F 90% 30.05 in 6.0 mi North 10.4 mph - 0.03 in Rain Light Rain
3:02 PM 46.4 °F 41.5 °F 42.8 °F 87% 30.01 in 9.0 mi North 10.4 mph - 0.01 in Rain Light Rain
3:18 PM 46.4 °F 41.9 °F 42.8 °F 87% 30.02 in 7.0 mi NNE 9.2 mph - 0.01 in Rain Light Rain
3:29 PM 46.4 °F 40.7 °F 42.8 °F 87% 30.02 in 6.0 mi North 12.7 mph - 0.01 in Rain Light Rain
3:37 PM 46.4 °F 39.8 °F 42.8 °F 87% 30.02 in 9.0 mi NNE 16.1 mph 20.7 mph 0.01 in Rain Light Rain
3:53 PM 46.0 °F 40.6 °F 41.0 °F 83% 30.07 in 9.0 mi NNE 11.5 mph - 0.01 in Rain Light Rain
4:32 PM 46.4 °F 40.4 °F 42.8 °F 87% 30.05 in 10.0 mi NNE 13.8 mph - 0.01 in Rain Light Rain
4:53 PM 46.0 °F 41.0 °F 42.1 °F 86% 30.11 in 10.0 mi North 10.4 mph - 0.01 in Rain Light Rain
5:53 PM 46.9 °F - 41.0 °F 80% 30.12 in 9.0 mi North 8.1 mph - 0.00 in Rain Light Rain
6:09 PM 44.6 °F 40.7 °F 39.2 °F 81% 30.08 in 7.0 mi NNW 6.9 mph - 0.02 in Rain Light Rain
6:40 PM 44.6 °F 38.4 °F 41.0 °F 87% 30.09 in 5.0 mi NNE 12.7 mph - 0.03 in Rain Light Rain
6:53 PM 44.1 °F 39.0 °F 42.1 °F 93% 30.14 in 6.0 mi NNE 9.2 mph - 0.04 in Rain Light Rain
7:29 PM 44.6 °F 39.7 °F 42.8 °F 93% 30.11 in 7.0 mi NNE 9.2 mph - 0.01 in Rain Light Rain
7:42 PM 44.6 °F 40.2 °F 42.8 °F 93% 30.12 in 5.0 mi NNE 8.1 mph - 0.01 in Rain Light Rain
7:53 PM 43.0 °F 37.7 °F 41.0 °F 93% 30.17 in 7.0 mi NNE 9.2 mph - 0.02 in Rain Light Rain
8:23 PM 42.8 °F 40.1 °F 41.0 °F 93% 30.13 in 9.0 mi North 4.6 mph - 0.01 in Rain Light Rain
8:53 PM 43.0 °F 41.3 °F 41.0 °F 93% 30.19 in 8.0 mi North 3.5 mph - 0.02 in Rain Light Rain
9:02 PM 42.8 °F - 41.0 °F 93% 30.14 in 6.0 mi Calm Calm - 0.00 in Rain Light Rain
9:29 PM 42.8 °F 38.0 °F 41.0 °F 93% 30.15 in 7.0 mi NE 8.1 mph - 0.02 in Rain Light Rain
9:36 PM 42.8 °F 39.3 °F 41.0 °F 93% 30.15 in 7.0 mi NE 5.8 mph - 0.02 in Rain Light Rain
9:53 PM 42.1 °F 39.2 °F 39.9 °F 92% 30.22 in 10.0 mi NNE 4.6 mph - 0.02 in Rain Light Rain
10:08 PM 42.8 °F 39.3 °F 39.2 °F 87% 30.16 in 9.0 mi North 5.8 mph - 0.01 in Rain Light Rain
10:45 PM 42.8 °F 39.3 °F 39.2 °F 87% 30.17 in 8.0 mi North 5.8 mph - 0.02 in Rain Light Rain
10:53 PM 42.1 °F 38.4 °F 39.9 °F 92% 30.23 in 7.0 mi North 5.8 mph - 0.02 in Rain Light Rain
11:53 PM 42.1 °F 39.2 °F 39.9 °F 92% 30.23 in 6.0 mi NNW 4.6 mph - 0.03 in Rain Light Rain